Tracking 31027 objects as of 19-Jul-2025
HD Live streaming from Space Station
objects crossing your sky now

STARLINK-11189

Track STARLINK-11189 now!
10-day predictions
STARLINK-11189 is classified as:


NORAD ID: 60188
Int'l Code: 2024-124F
Perigee: 366.1 km
Apogee: 367.6 km
Inclination: 53.2 °
Period: 91.7 minutes
Semi major axis: 6737 km
RCS: Unknown
Launch date: July 3, 2024
Source: United States (US)
Launch site: AIR FORCE EASTERN TEST RANGE (AFETR)
Your satellite tracking list
KORSAT 7
Track 1 satellite(s)




NASA's NSSDC Master Catalog

Two Line Element Set (TLE):
1 60188U 24124F   25199.79793721 -.00000990  00000-0 -33165-5 0  9990
2 60188  53.1587 234.6288 0001089  84.5163 275.5979 15.69711274 60971
Source of the keplerian elements: AFSPC